COBE

导读

COBE(宇宙背景探测器)是美国于1989年11月18日发射的微波天文卫星,运行于900千米高的太阳同步轨道,1993年退役。它携带三台仪器,精准测量宇宙微波背景辐射,证实其2.725K黑体谱性质,确认了宇宙微波背景各向异性的存在,为验证热大爆炸宇宙学提供关键证据。其贡献推动了现代宇宙学发展,相关科学家于2006年获得诺贝尔物理学奖。

基本信息
目录编号:
20322
目录名称:
COBE
国际标识:
1989-089A
轨道中心:
EARTH
卫星名称:
COBE
卫星全名:
--
卫星状态:
在轨 (已飞行13447 天)
发射日期:
1989-11-18 UTC
国别 :
美国 (US)
星等 :
--
该卫星已列入 空间交会检测服务 Space Conjunction Data Service (SCDS) ,当前飞行风险评估等级: 无高风险
轨道信息
数据来源 国际轨道数据
星历时间: 2026-09-11T21:37:20+0800
13小时前
查看轨道信息
半长轴: 7253.024km
偏心率: 0.0008157
轨道倾角: 98.902°
近地点辐角 191.851°
升交点赤经 255.084°
平近点角 278.938°
近地点: 868.97km
远地点: 880.804km
周期: 102.456分钟
每日圈数: 14.054783
详细信息
使用方式:
暂无
2D轨道图
3D轨道图
轨道高度分析图
轨道倾角分析图
轨道综合分析图
查看轨道综合分析图
交会数据列表
事件ID 空间交会对象 最接近时刻(TCA) 交会距离 交会风险概率(CRP) 交会风险指数(CRI) 操作
CDM_260914-085801-051402-032221
COBE (20322)
2026-09-14T
08:58:31+0000
1.586 km
极远距离
4.690302E-6 低风险 0.48
与全量物体交会距离演化趋势
与全量物体交会风险概率演化趋势